This is the latest recevied weather packets stored in our database for station/object KI5GCD-13. If no packets are shown the sender has not sent any weather packets the latest 10 day(s).
| Time | Temp. | Humidity | Pressure | Rain* | Wind** | Luminosity | Snow |
|---|---|---|---|---|---|---|---|
| 1777420188 | 17.78° C | 97% | 1007.6 hPa | 0 mm | 0.45 m/s, 276° | - | - |
| 1777419888 | 17.78° C | 97% | 1007.7 hPa | 0 mm | 0.45 m/s, 344° | - | - |
| 1777419587 | 17.78° C | 97% | 1007.7 hPa | 0 mm | 0.45 m/s, 268° | - | - |
| 1777419287 | 17.78° C | 97% | 1007.5 hPa | 0 mm | 0 m/s | - | - |
| 1777418988 | 17.78° C | 97% | 1007.5 hPa | 0 mm | 0.89 m/s, 284° | - | - |
| 1777418688 | 17.78° C | 97% | 1007.3 hPa | 0 mm | 0.45 m/s, 269° | - | - |
| 1777418388 | 17.78° C | 96% | 1007.3 hPa | 0 mm | 0.89 m/s, 284° | - | - |
| 1777418088 | 18.33° C | 97% | 1007 hPa | 0 mm | 0 m/s | - | - |
| 1777417788 | 18.33° C | 97% | 1006.8 hPa | 0 mm | 0.45 m/s, 274° | - | - |
| 1777417488 | 18.33° C | 97% | 1006.8 hPa | 0 mm | 0.45 m/s, 268° | - | - |
| 1777417187 | 17.78° C | 97% | 1007.3 hPa | 0 mm | 0 m/s | - | - |
| 1777416888 | 18.33° C | 97% | 1007.1 hPa | 0 mm | 0.45 m/s, 272° | - | - |
| 1777416588 | 18.33° C | 96% | 1007.1 hPa | 0 mm | 0.45 m/s, 270° | - | - |
| 1777416288 | 18.33° C | 98% | 1006.9 hPa | 0 mm | 0 m/s | - | - |
| 1777415988 | 17.78° C | 97% | 1007.1 hPa | 0 mm | 0 m/s | - | - |
| 1777415688 | 17.78° C | 97% | 1007.3 hPa | 0 mm | 0 m/s | - | - |
| 1777415387 | 17.78° C | 96% | 1007 hPa | 0 mm | 0 m/s | - | - |
| 1777415088 | 17.78° C | 95% | 1007 hPa | 0 mm | 0 m/s | - | - |
| 1777414787 | 17.78° C | 95% | 1006.8 hPa | 0 mm | 0 m/s | - | - |
| 1777414487 | 17.78° C | 97% | 1006.4 hPa | 0 mm | 0.45 m/s, 247° | - | - |
| 1777414187 | 17.22° C | 97% | 1006.3 hPa | 0 mm | 1.34 m/s, 227° | - | - |
| 1777413887 | 17.22° C | 98% | 1005.8 hPa | 0 mm | 1.34 m/s, 22° | - | - |
| 1777413587 | 17.22° C | 98% | 1006.2 hPa | 0 mm | 0.89 m/s, 358° | - | - |
| 1777413288 | 17.22° C | 98% | 1006.2 hPa | 0 mm | 0.89 m/s, 358° | - | - |
| 1777412988 | 17.22° C | 99% | 1006.7 hPa | 0 mm | 0.45 m/s, 264° | - | - |
* Rain latest hour (hover to see other rain measurements)
** Current wind speed in m/s (hover to see current wind gust speed)